Location: Piano di Satadi
(39.7500°N, 8.4500°E)
Time: 09:32:26
(UTC+00:00)

Daily predictions for brighter satellites

Satellite Brightness Start Highest point End
(mag) Time Altitude Azimuth Time Altitude Azimuth Time Altitude Azimuth
Cosmos 2181 Rocket 4.1 17:38:18 10° N 17:44:28 62° E 17:50:40 10° SSE
Cosmos 1842 3.2 17:43:27 10° N 17:47:23 67° E 17:51:16 10° SSE
Geosat 4.3 17:44:19 10° NE 17:49:11 47° ESE 17:53:59 10° S
Okean O Rocket 1.8 17:45:05 10° S 17:49:27 78° WSW 17:53:51 10° NNW
Cosmos 1378 Rocket 4.1 17:46:18 10° N 17:50:25 37° ENE 17:54:30 10° SE
ATLAS CENTAUR R/B 2.9 17:48:12 10° N 17:52:06 25° NE 17:56:05 10° ESE
Cosmos 1461 3.6 17:51:44 10° NNW 17:55:23 33° NE 17:58:56 10° ESE
Cosmos 1354 Rocket 4.2 17:52:48 10° S 17:57:49 47° ESE 18:02:50 10° NNE
Cosmos 2082 Rocket 2.4 17:52:30 10° NNW 17:58:14 80° WSW 18:03:54 10° SSE
Cosmos 2184 Rocket 4.2 17:53:45 10° SSE 17:59:53 53° E 18:05:59 10° NNE
YAOGAN 1 2.7 17:56:06 10° SSE 18:00:16 52° ENE 18:04:29 10° N
ARGOS 3.1 17:56:45 10° SSE 18:02:05 85° ENE 18:07:29 10° NNW
Cosmos 1486 Rocket 4.4 17:58:40 10° SSW 18:03:52 71° WNW 18:09:11 10° NNE
Lacrosse 5 rocket 2.9 18:03:29 10° NNW 18:07:12 24° NNE 18:10:14 13° E
Cosmos 1674 Rocket 3.5 18:04:53 10° N 18:09:13 69° E 18:13:30 10° SSE
SJ 16-02 2.6 18:07:03 10° SE 18:10:10 19° E 18:13:18 10° NE
CZ-4 R/B 1.2 18:07:37 10° SSE 18:11:27 72° ENE 18:15:16 10° N
Cosmos 1943 Rocket 2.1 18:06:05 10° SSW 18:11:37 79° ESE 18:17:14 10° NNE
Cosmos 1975 3.3 18:08:17 10° SSW 18:12:12 65° W 18:16:10 10° N
Feng Yun 1-1 Rocket 4.2 18:08:12 10° SSE 18:13:36 85° WSW 18:19:01 10° NNW
ISS -1.1 18:11:37 10° WNW 18:13:46 16° NNW 18:15:56 10° NNE
COSMO-SKYMED 1 4.5 18:11:57 10° N 18:15:53 34° WNW 18:19:47 10° SW
Okean 2 3.3 18:12:21 10° N 18:16:27 78° E 18:20:31 10° S
Cosmos 1315 Rocket 4.4 18:16:50 16° E 18:16:50 16° E 18:19:03 10° NE
Cosmos 2154 Rocket 4.2 18:12:54 10° SSE 18:18:59 52° E 18:25:08 10° NNE
Cosmos 2369 Rocket 2.5 18:14:38 10° S 18:19:54 42° ESE 18:25:11 10° NE
SL-08 RB Rocket 3.7 18:15:58 10° SSE 18:20:26 87° WSW 18:24:56 10° NNW
GENESIS II 4.2 18:17:15 10° SSW 18:20:59 53° ESE 18:24:45 10° NE
Cosmos 1400 Rocket 2.7 18:19:39 10° S 18:23:43 72° E 18:27:47 10° NNE
CZ-2C R/B 3.7 18:19:00 10° N 18:24:21 52° WNW 18:29:45 10° SSW
SJ-6B 4.3 18:23:39 19° E 18:24:38 21° ENE 18:27:43 10° NNE
BREEZE-M DEB (TANK) 2.1 18:23:22 10° NW 18:25:11 42° NNE 18:25:48 31° ENE
Cosmos 2297 4.0 18:21:51 10° SSW 18:27:30 70° WNW 18:33:13 10° NNE
SeaSat 1 3.5 18:25:19 19° E 18:27:40 27° NE 18:31:44 10° N
Cosmos 773 Rocket 4.5 18:23:13 10° N 18:28:12 41° ENE 18:31:47 18° SE
CSL-04 Debris 4.2 18:26:01 10° SSE 18:31:16 57° ENE 18:36:33 10° N
Cosmos 1805 3.9 18:30:34 10° SSE 18:34:03 32° E 18:37:33 10° NNE
Cosmos 1238 Rocket 3.9 18:28:56 10° S 18:35:25 86° E 18:41:15 10° N
Nadezhda 3 Rocket 4.0 18:31:30 10° N 18:37:34 59° E 18:43:39 10° SSE
Cosmos 1782 Rocket 3.7 18:33:18 10° S 18:37:37 51° E 18:41:55 10° NNE
H-2A R/B 2.8 18:34:37 10° N 18:38:42 53° WNW 18:42:42 10° SSW
DMSP B5D2-2 4.2 18:34:51 10° N 18:40:09 80° WNW 18:45:25 10° SSW
Cosmos 783 Rocket 4.5 18:37:45 10° NNW 18:43:03 66° ENE 18:47:01 18° SSE
Cosmos 1674 2.6 18:40:53 10° N 18:44:34 59° E 18:46:24 27° SSE
Cosmos 1707 3.6 18:42:38 10° NNW 18:46:25 50° W 18:50:12 10° S
IRS-1C Rocket 4.4 18:42:34 10° S 18:47:48 70° WSW 18:53:03 10° NNW
Cosmos 2263 4.2 18:43:40 10° S 18:49:04 52° ESE 18:54:30 10° NNE
CZ-4B R/B 1.8 18:48:31 10° N 18:51:33 56° WNW 18:54:37 10° SSW
Okean-O 2.8 18:47:53 10° S 18:52:17 71° WSW 18:56:44 10° NNW
Ariane Rocket 4.2 18:53:34 24° ENE 18:53:34 24° ENE 18:57:25 10° NNE
USA 215 3.4 18:49:44 26° ESE 18:53:31 63° NE 18:59:59 10° NW
Cosmos 1656 Rocket 3.7 18:48:44 10° S 18:54:10 55° ESE 18:59:33 10° NNE
CZ-3B R/B 4.1 18:49:05 10° WNW 18:54:36 24° WSW 18:57:16 10° SSW
ASTRO F (AKARI) 4.3 18:53:55 32° SSE 18:55:24 89° E 18:58:48 10° NNW
Atlas Centaur 2 3.6 18:48:32 10° WSW 18:56:21 42° S 19:00:06 28° SE
Meteor 1-12 Rocket 4.3 18:51:30 10° S 18:57:30 77° E 19:03:30 10° NNE
PSLV R/B 3.8 18:54:00 10° NNE 18:58:10 89° WNW 19:02:16 10° SSW
KORONAS-FOTON 3.7 18:55:58 10° N 18:59:45 81° W 19:01:47 26° S
Cosmos 1025 Rocket 3.9 18:57:06 10° N 19:00:13 31° NE 19:00:13 31° NE
COSMOS 2455 3.1 18:56:25 10° NNW 19:02:24 67° WSW 19:07:16 16° SSE
Cosmos 1626 2.0 19:01:41 10° N 19:05:11 66° ENE 19:05:11 66° ENE
Cosmos 1538 Rocket 4.4 19:01:16 10° N 19:06:23 43° ENE 19:07:03 41° E
Cosmos 2341 Rocket 4.0 19:01:12 10° S 19:07:23 62° E 19:13:40 10° NNE
Cosmos 1733 3.0 19:06:54 63° SSE 19:07:25 78° E 19:11:14 10° N
Resurs 01 Rocket 3.6 19:10:07 16° NE 19:10:07 16° NE 19:11:32 10° NNE
MetOp-A 4.4 19:03:33 10° S 19:08:52 68° WSW 19:14:13 10° NNW
Cosmos 1975 Rocket 2.9 19:04:38 10° N 19:09:05 74° E 19:10:05 52° SSE
Cosmos 2366 rocket 4.2 19:11:33 41° E 19:12:00 42° E 19:17:43 10° NNE
USA 186 3.1 19:15:18 32° NNW 19:15:18 32° NNW 19:17:05 10° NNW
Cosmos 1300 Rocket 4.1 19:15:36 42° NE 19:15:36 42° NE 19:18:44 10° NNE
Cosmos 1346 Rocket 2.8 19:11:09 10° NNW 19:15:11 80° W 19:15:52 59° S
Resurs 1-3 4.3 19:18:50 39° NE 19:18:50 39° NE 19:22:03 10° N
CSL-04 Rocket 4.1 19:14:26 10° S 19:19:41 58° W 19:25:02 10° NNW
Cosmos 2218 Rocket 4.0 19:19:29 48° ESE 19:20:12 51° E 19:26:09 10° NNE
NOSS 3-2 (A) 3.6 19:20:16 10° SSW 19:33:26 - NE 19:24:05 43° SSE
OBJECT-B 2.4 19:29:29 33° WNW 19:29:29 33° WNW 19:31:40 10° NNW
Cosmos 158 Rocket 4.2 19:26:02 10° N 19:30:16 51° NNE 19:30:16 51° NNE
ATLAS CENTAUR R/B 2.7 19:26:39 10° NW 19:31:09 43° WSW 19:32:33 34° SSW
Cosmos 1959 Rocket 4.4 19:38:23 61° SE 19:39:21 71° E 19:45:38 10° NNE
Cosmos 864 Rocket 4.3 19:40:50 69° SE 19:41:19 72° E 19:47:29 10° NNE
Lacrosse 5 rocket 2.3 19:42:15 10° NW 19:45:50 49° W 19:45:50 49° W
SJ 16-02 2.9 19:44:23 10° SW 19:48:27 35° WNW 19:52:32 10° N
Meteor 1-24 Rocket 4.2 19:43:29 10° N 19:47:23 46° NNE 19:47:23 46° NNE
ISS -0.5 19:50:38 10° NNW 19:50:41 10° NNW 19:50:41 10° NNW
Cosmos 1315 Rocket 4.5 19:52:22 31° W 19:52:48 32° WNW 19:56:26 10° N
MOS 1 4.3 19:55:59 80° W 19:55:59 80° W 20:01:40 10° NNW
IRS-1A Rocket 4.3 19:58:48 80° W 19:58:48 80° W 20:04:41 10° NNW
Cosmos 1833 4.4 19:55:11 10° NNW 20:00:03 67° NW 20:00:03 67° NW
Cosmos 2369 Rocket 4.1 19:59:13 10° WSW 20:04:02 28° WNW 20:08:51 10° N
SeaSat 1 3.4 20:05:07 41° WSW 20:05:07 41° WSW 20:09:38 10° NW
USA 281 3.5 20:11:38 10° NNE 20:16:36 55° NNE 20:16:36 55° NNE
USA 215 4.3 20:37:06 36° WSW 20:37:06 36° WSW 20:42:40 10° WNW
Resurs 01 Rocket 4.4 20:47:41 15° NW 20:47:41 15° NW 20:48:33 10° NNW
Atlas Centaur 2 4.1 20:37:46 10° WSW 20:42:41 32° SW 20:42:41 32° SW
FALCON 9 R/B 4.5 20:29:19 10° W 21:09:58 44° SSW 21:09:58 44° SSW
